Flag for Germany Weather past 2 weeks in Limburg an der Lahn, Hesse, Germany

Now
88 °F

Passing clouds.


Feels Like: 91 °F
Forecast: 72 / 97 °F
Wind: 6 mph from South

Location: Hessen

Current Time: Jul 3, 2015 at 6:08:22 PM

Latest Report: Jul 3, 2015 at 5:20 PM


Visibility: N/A

Pressure: 30.30 "Hg

Humidity: 52%

Dew point: 68 °F

Location of Limburg an der LahnLocation

Historic Weather in Limburg an der Lahn — Graph

°F

Limburg an der Lahn temperature yesterday

Maximum temperature yesterday: 88 °F (at 3:20 PM)
Minimum temperature yesterday: 70 °F (at 7:50 AM)
Average temperature yesterday: 83 °F

Past Weeks' High & Low Weather Summary

 TemperatureHumidityPressure
High88 °F (Jul 2, 3:20 PM)100% (Jun 19, 11:50 AM)30.33 "Hg (Jun 19, 11:50 AM)
Low45 °F (Jun 19, 6:20 AM)36% (Jun 30, 2:20 PM)29.68 "Hg (Jun 22, 8:50 PM)
Average62 °F73%30.11 "Hg
* Reported Jun 18 4:20 PM — Jul 3 4:50 PM, Limburg an der Lahn, Weather by CustomWeather, © 2015

Note: Actual official high and low records may vary slightly from our data, if they occured in-between our weather recording intervals... More about our weather records

Advertising

Limburg an der Lahn weather history for previous 24 hours

 ConditionsComfort  
Time TempWeatherWind HumidityBarometerVisibility
4:50 PM
Fri, Jul 3
88 °FPassing clouds.5 mph52%30.30 "HgN/A
4:20 PM88 °FPassing clouds.3 mph52%30.30 "HgN/A
3:50 PM86 °FPassing clouds.6 mph55%30.30 "HgN/A
3:20 PM86 °FPassing clouds.5 mph55%30.30 "HgN/A
2:50 PM86 °FPassing clouds.5 mph52%30.30 "HgN/A
2:20 PM84 °FPassing clouds.7 mph58%30.30 "HgN/A
1:50 PM84 °FPassing clouds.6 mph55%30.30 "HgN/A
1:20 PM84 °FPassing clouds.6 mph58%30.30 "HgN/A
12:50 PM82 °FPassing clouds.6 mph62%30.33 "HgN/A
12:20 PM81 °FPassing clouds.7 mph66%30.33 "HgN/A
11:50 AM81 °FSunny.3 mph66%30.33 "Hg10 mi
11:20 AM79 °FSunny.3 mph74%30.27 "Hg10 mi
10:50 AM77 °FPassing clouds.6 mph74%30.30 "HgN/A
10:20 AM75 °FPassing clouds.7 mph78%30.30 "HgN/A
9:50 AM73 °FPassing clouds.7 mph78%30.30 "HgN/A
9:20 AM73 °FPassing clouds.5 mph83%30.30 "HgN/A
8:50 AM70 °FClear.9 mph94%30.30 "Hg6 mi
8:20 AM70 °FClear.9 mph88%30.30 "Hg5 mi
7:50 AM68 °FClear.8 mph94%30.30 "Hg4 mi
9:50 PM
Thu, Jul 2
77 °FSunny.9 mph61%30.21 "Hg10 mi
9:20 PM79 °FSunny.8 mph58%30.21 "Hg10 mi
8:50 PM81 °FSunny.7 mph58%30.21 "Hg10 mi
8:20 PM84 °FSunny.6 mph48%30.21 "Hg10 mi
7:50 PM86 °FSunny.9 mph49%30.21 "Hg10 mi
7:20 PM86 °FSunny.8 mph49%30.21 "Hg10 mi
6:50 PM88 °FSunny.14 mph46%30.21 "Hg10 mi
6:20 PM88 °FSunny.9 mph43%30.21 "Hg10 mi
Weather by CustomWeather, © 2015

See weather overviewHow to use our weather pages